Weather in Eleja

Latvia     56°24′52″N   23°41′05″E
temp.,
°C
wind,
m/s
gust,
m/s
humid.,
%
clouds,
%
prec.,
mm/h
press.,
hPa
HPBL,
m
7 may, fri
fri700:00+5sw71284100 0.0 10011043
03:00+5sw81381100 0.1 1001967
06:00+5sw6128296 0.1 1002827
09:00+6sw6978100 0.1 1003894
12:00+9sw5763100 0.3 10041562
15:00+9wsw5770100 1.3 1004970
18:00+9w4565100 1.1 10041105
21:00+5wnw3584100 1.4 1005100
8 may, sat
sat800:00+2nw369824 0.0 1006141
03:00+2wnw389295 0.0 1007259
06:000wnw399615 0.0 1008261
09:00+5wnw58765 0.0 1010921
12:00+9wnw5848100 0.0 10102194
15:00+8w567098 1.1 10121216
18:00+8nw346676 1.8 1013832
21:00+5sse117280 2.4 101410
9 may, sun
sun900:00+2w36885 0.0 1016106
03:00+1sw37955 0.0 1017131
06:00+1ssw389796 0.0 1018175
09:00+6sw598195 0.0 1019445
12:00+10ssw6754100 0.0 10191149
15:00+13ssw6953100 0.0 10182023
18:00+11s51068100 0.1 1017503
21:00+11s6157336 0.1 1017605
10 may, mon
mon1000:00+11s61577100 0.0 1018469
03:00+11s5137787 0.0 1018430
06:00+8s513876 0.0 1019292
09:00+13s613745 0.0 1020461
12:00+17s811626 0.0 1020906
15:00+19s8125949 0.0 10201239
18:00+19sse813645 0.0 10191174
21:00+15sse7157359 0.0 1019650
11 may, tue
tue1100:00+13sse7177279 0.0 1019534
03:00+12sse61676100 0.0 1020466
06:00+11sse61579100 0.0 1020439
09:00+13sse71575100 0.0 1020530
12:00+18sse811605 0.0 1020907
15:00+20sse812570 0.0 10191178
18:00+19sse8136015 0.0 10191043
21:00+15sse615710 0.0 1019525